Tracking 18987 objects as of 25-Feb-2018
HD Live streaming from Space Station
objects crossing your sky now

FENGYUN 1C DEB

Track FENGYUN 1C DEB now!
10-day predictions


NORAD ID: 41011
Int'l Code: 1999-025EXR
Perigee: 546.3 km
Apogee: 1,070.8 km
Inclination: 99.2 °
Period: 100.9 minutes
Semi major axis: 7179 km
RCS: Unknown
Launch date: May 10, 1999
Source: People's Republic of China (PRC)
Launch site: Taiyaun Space Center, China (TSC)

Note: This is SATELLITE DEBRIS
aabbcc
Your satellite tracking list
Your tracking list is empty




NASA's NSSDC Master Catalog

Two Line Element Set (TLE):
1 41011U 99025EXR 18051.35813598 +.00000267 +00000-0 +67617-4 0  9995
2 41011 099.2048 261.4744 0365256 355.1818 004.5881 14.27099413163609
Source of the keplerian elements: AFSPC